When you browse on this site, cookies collect data to enhance your experience and personalize the content and advertising you see.
Visit our Privacy Policy to learn more. By continuing to use the site, you agree to this use of cookies and data.
  • Em Portugal
  • Lista de países
  • Para 7 dias
  • Temperatura da água
  • Mapas de satélite
  • Mapa do tempo
  • Widgets de tempo
  • user-avatar
    Iniciar Sessão

    Previsão horária em Jastkowice

    Hoje, 24 Março, Domingo

    Tempo Temperatura Precipitação Vento Pressão Humidade
    00:00 +7°C° 0 mm 2 m/s 753 mmHg 50%
    01:00 +8°C° 0 mm 1 m/s 753 mmHg 58%
    02:00 +7°C° 0 mm 2 m/s 753 mmHg 67%
    03:00 +7°C° 0 mm 3 m/s 753 mmHg 76%
    04:00 +8°C° 0 mm 3 m/s 753 mmHg 85%
    05:00 +6°C° 0 mm 4 m/s 753 mmHg 84%
    06:00 +6°C° 0 mm 4 m/s 753 mmHg 84%
    07:00 +6°C° 0 mm 4 m/s 754 mmHg 84%
    08:00 +7°C° 0 mm 4 m/s 754 mmHg 74%
    09:00 +8°C° 0 mm 4 m/s 754 mmHg 63%
    10:00 +10°C° 0 mm 4 m/s 754 mmHg 52%
    11:00 +10°C° 0 mm 3 m/s 753 mmHg 47%
    12:00 +11°C° 0 mm 3 m/s 753 mmHg 41%
    13:00 +12°C° 0 mm 3 m/s 752 mmHg 35%
    14:00 +12°C° 0 mm 3 m/s 752 mmHg 35%
    15:00 +13°C° 0 mm 2 m/s 751 mmHg 34%
    16:00 +13°C° 0 mm 2 m/s 751 mmHg 33%
    17:00 +10°C° 0 mm 2 m/s 751 mmHg 38%
    18:00 +9°C° 0 mm 2 m/s 750 mmHg 42%
    19:00 +9°C° 0 mm 1 m/s 750 mmHg 47%
    20:00 +8°C° 0 mm 1 m/s 750 mmHg 47%
    21:00 +8°C° 0 mm 1 m/s 749 mmHg 48%
    22:00 +8°C° 0 mm 1 m/s 749 mmHg 49%
    23:00 +7°C° 0 mm 0 m/s 748 mmHg 50%

    Amanhã, 25 Março, Segunda-feira

    Tempo Temperatura Precipitação Vento Pressão Humidade
    00:00 +7°C° 0 mm 0 m/s 748 mmHg 51%
    01:00 +7°C° 0 mm 0 m/s 748 mmHg 52%
    02:00 +6°C° 0.2 mm 0 m/s 747 mmHg 57%
    03:00 +7°C° 0.2 mm 1 m/s 747 mmHg 63%
    04:00 +7°C° 0.2 mm 1 m/s 746 mmHg 68%
    05:00 +7°C° 0.1 mm 1 m/s 746 mmHg 69%
    06:00 +6°C° 0.1 mm 2 m/s 746 mmHg 70%
    07:00 +6°C° 0.1 mm 2 m/s 746 mmHg 71%
    08:00 +7°C° 0 mm 2 m/s 745 mmHg 63%
    09:00 +9°C° 0 mm 3 m/s 745 mmHg 55%
    10:00 +10°C° 0 mm 3 m/s 745 mmHg 46%
    11:00 +10°C° 0.1 mm 3 m/s 744 mmHg 46%
    12:00 +11°C° 0.1 mm 3 m/s 744 mmHg 46%
    13:00 +11°C° 0.1 mm 4 m/s 744 mmHg 46%
    14:00 +11°C° 0.2 mm 4 m/s 743 mmHg 45%
    15:00 +9°C° 0.2 mm 5 m/s 743 mmHg 44%
    16:00 +9°C° 0.2 mm 5 m/s 743 mmHg 44%
    17:00 +8°C° 0.1 mm 4 m/s 744 mmHg 49%
    18:00 +8°C° 0.1 mm 3 m/s 744 mmHg 54%
    19:00 +7°C° 0.1 mm 2 m/s 745 mmHg 60%
    20:00 +5°C° 0.1 mm 3 m/s 745 mmHg 64%
    21:00 +5°C° 0.1 mm 4 m/s 746 mmHg 68%
    22:00 +4°C° 0.1 mm 4 m/s 747 mmHg 72%
    23:00 +4°C° 0 mm 4 m/s 747 mmHg 75%

    Depois de amanhã, 26 Março, Terça-feira

    Tempo Temperatura Precipitação Vento Pressão Humidade
    00:00 +3°C° 0 mm 4 m/s 748 mmHg 78%
    01:00 +1°C° 0 mm 4 m/s 748 mmHg 82%
    02:00 +1°C° 0 mm 4 m/s 748 mmHg 83%
    03:00 +1°C° 0 mm 4 m/s 749 mmHg 85%
    04:00 0°C° 0 mm 4 m/s 749 mmHg 86%
    05:00 0°C° 0 mm 5 m/s 750 mmHg 84%
    06:00 0°C° 0 mm 5 m/s 751 mmHg 82%
    07:00 +1°C° 0 mm 5 m/s 751 mmHg 80%
    08:00 +1°C° 0 mm 5 m/s 752 mmHg 72%
    09:00 +2°C° 0 mm 5 m/s 752 mmHg 65%
    10:00 +3°C° 0 mm 5 m/s 753 mmHg 57%
    11:00 +5°C° 0 mm 5 m/s 752 mmHg 50%
    12:00 +6°C° 0 mm 5 m/s 752 mmHg 44%
    13:00 +8°C° 0 mm 5 m/s 752 mmHg 37%
    14:00 +8°C° 0 mm 6 m/s 751 mmHg 37%
    15:00 +8°C° 0 mm 6 m/s 751 mmHg 37%
    16:00 +8°C° 0 mm 7 m/s 751 mmHg 37%
    17:00 +7°C° 0 mm 6 m/s 751 mmHg 44%
    18:00 +5°C° 0 mm 6 m/s 751 mmHg 50%
    19:00 +6°C° 0 mm 5 m/s 751 mmHg 57%
    20:00 +5°C° 0 mm 5 m/s 752 mmHg 61%
    21:00 +3°C° 0 mm 5 m/s 752 mmHg 65%
    22:00 +3°C° 0 mm 4 m/s 753 mmHg 69%
    23:00 +1°C° 0 mm 4 m/s 753 mmHg 69%

    27 Março, Quarta-feira

    Tempo Temperatura Precipitação Vento Pressão Humidade
    00:00 0°C° 0 mm 4 m/s 754 mmHg 68%
    01:00 0°C° 0 mm 3 m/s 754 mmHg 68%
    02:00 -1°C° 0 mm 3 m/s 755 mmHg 69%
    03:00 -2°C° 0 mm 2 m/s 755 mmHg 70%
    04:00 -2°C° 0 mm 2 m/s 755 mmHg 71%
    05:00 -2°C° 0 mm 2 m/s 756 mmHg 66%
    06:00 -1°C° 0 mm 2 m/s 756 mmHg 61%
    07:00 -1°C° 0 mm 2 m/s 757 mmHg 56%
    08:00 +2°C° 0 mm 2 m/s 757 mmHg 48%
    09:00 +4°C° 0 mm 2 m/s 757 mmHg 41%
    10:00 +4°C° 0 mm 3 m/s 757 mmHg 33%
    11:00 +6°C° 0 mm 2 m/s 757 mmHg 33%
    12:00 +7°C° 0 mm 2 m/s 757 mmHg 33%
    13:00 +8°C° 0 mm 2 m/s 757 mmHg 34%
    14:00 +8°C° 0 mm 2 m/s 757 mmHg 34%
    15:00 +9°C° 0 mm 2 m/s 757 mmHg 35%
    16:00 +9°C° 0 mm 2 m/s 757 mmHg 35%
    17:00 +8°C° 0 mm 2 m/s 757 mmHg 40%
    18:00 +6°C° 0 mm 2 m/s 757 mmHg 44%
    19:00 +6°C° 0 mm 1 m/s 757 mmHg 48%
    20:00 +5°C° 0 mm 2 m/s 758 mmHg 51%
    21:00 +4°C° 0 mm 2 m/s 758 mmHg 53%
    22:00 +4°C° 0 mm 2 m/s 758 mmHg 56%
    23:00 +3°C° 0 mm 2 m/s 758 mmHg 59%

    28 Março, Quinta-feira

    Tempo Temperatura Precipitação Vento Pressão Humidade
    00:00 +3°C° 0 mm 2 m/s 758 mmHg 61%
    01:00 +3°C° 0 mm 2 m/s 759 mmHg 64%
    02:00 +2°C° 0 mm 2 m/s 759 mmHg 67%
    03:00 +2°C° 0 mm 2 m/s 758 mmHg 69%
    04:00 +2°C° 0 mm 2 m/s 758 mmHg 72%
    05:00 +3°C° 0 mm 2 m/s 759 mmHg 71%
    06:00 +3°C° 0 mm 2 m/s 759 mmHg 69%
    07:00 +4°C° 0 mm 2 m/s 759 mmHg 68%
    08:00 +6°C° 0 mm 2 m/s 759 mmHg 63%
    09:00 +8°C° 0 mm 2 m/s 759 mmHg 59%
    10:00 +10°C° 0 mm 2 m/s 759 mmHg 54%
    11:00 +10°C° 0 mm 2 m/s 759 mmHg 54%
    12:00 +12°C° 0 mm 2 m/s 759 mmHg 53%
    13:00 +12°C° 0 mm 2 m/s 759 mmHg 52%
    14:00 +12°C° 0 mm 2 m/s 759 mmHg 53%
    15:00 +12°C° 0 mm 2 m/s 758 mmHg 54%
    16:00 +12°C° 0 mm 2 m/s 758 mmHg 55%
    17:00 +10°C° 0 mm 2 m/s 758 mmHg 59%
    18:00 +10°C° 0 mm 1 m/s 758 mmHg 63%
    19:00 +10°C° 0 mm 1 m/s 759 mmHg 68%
    20:00 +9°C° 0 mm 1 m/s 759 mmHg 69%
    21:00 +9°C° 0 mm 1 m/s 759 mmHg 71%
    22:00 +9°C° 0 mm 1 m/s 759 mmHg 73%
    23:00 +8°C° 0 mm 1 m/s 759 mmHg 76%

    29 Março, Sexta-feira

    Tempo Temperatura Precipitação Vento Pressão Humidade
    00:00 +7°C° 0 mm 1 m/s 759 mmHg 80%
    01:00 +7°C° 0 mm 1 m/s 759 mmHg 83%
    02:00 +6°C° 0 mm 1 m/s 759 mmHg 86%
    03:00 +5°C° 0 mm 1 m/s 759 mmHg 88%
    04:00 +5°C° 0 mm 1 m/s 759 mmHg 90%
    05:00 +6°C° 0 mm 1 m/s 759 mmHg 87%
    06:00 +6°C° 0 mm 1 m/s 759 mmHg 85%
    07:00 +7°C° 0 mm 1 m/s 759 mmHg 82%
    08:00 +8°C° 0 mm 1 m/s 759 mmHg 74%
    09:00 +9°C° 0 mm 2 m/s 759 mmHg 65%
    10:00 +12°C° 0 mm 2 m/s 759 mmHg 57%
    11:00 +13°C° 0 mm 2 m/s 759 mmHg 52%
    12:00 +14°C° 0 mm 2 m/s 758 mmHg 48%
    13:00 +14°C° 0 mm 3 m/s 758 mmHg 43%
    14:00 +14°C° 0 mm 3 m/s 758 mmHg 44%
    15:00 +14°C° 0 mm 3 m/s 757 mmHg 44%
    16:00 +14°C° 0 mm 3 m/s 757 mmHg 45%
    17:00 +14°C° 0 mm 2 m/s 757 mmHg 52%
    18:00 +12°C° 0 mm 2 m/s 757 mmHg 59%
    19:00 +10°C° 0 mm 2 m/s 757 mmHg 66%
    20:00 +9°C° 0 mm 2 m/s 757 mmHg 70%
    21:00 +10°C° 0 mm 1 m/s 757 mmHg 74%
    22:00 +9°C° 0 mm 1 m/s 757 mmHg 78%
    23:00 +9°C° 0 mm 1 m/s 757 mmHg 81%
    Mostrar mais